Home > Time Zones > World Clock > Weather > U.S.A. > Nome > Past weeks

Flag for U.S.A. Weather past 2 weeks in Nome, Alaska, U.S.A.

Now
55 °F

Scattered clouds.


Feels Like: 52 °F
Forecast: 41 / 48 °F
Wind: 9 mph from Southeast

Location: Nome Airport

Current Time: May 26, 2015 at 9:02:32 PM

Latest Report: May 26, 2015 at 7:53 PM


Visibility: 10 mi

Pressure: 30.03 "Hg

Humidity: 62%

Dew point: 42 °F

Location of NomeLocation

Historic Weather in Nome — Graph

°F

Nome temperature yesterday

Maximum temperature yesterday: 49 °F (at 10:53 PM)
Minimum temperature yesterday: 40 °F (at 1:53 AM)
Average temperature yesterday: 45 °F

Past Weeks' High & Low Weather Summary

 TemperatureHumidityPressure
High58 °F (May 22, 6:53 PM)100% (May 12, 2:01 AM)30.14 "Hg (May 12, 2:01 AM)
Low29 °F (May 12, 6:53 AM)59% (May 26, 3:53 PM)29.50 "Hg (May 13, 3:53 PM)
Average41 °F89%29.83 "Hg
* Reported May 11 7:53 PM — May 26 7:53 PM, Nome, Weather by CustomWeather, © 2015

Note: Actual official high and low records may vary slightly from our data, if they occured in-between our weather recording intervals... More about our weather records

Advertising

Nome weather history for previous 24 hours

 ConditionsComfort  
Time TempWeatherWind HumidityBarometerVisibility
7:53 PM
Tue, May 26
55 °FScattered clouds.9 mph62%30.03 "Hg10 mi
6:53 PM55 °FScattered clouds.9 mph59%30.04 "Hg10 mi
5:53 PM53 °FPassing clouds.6 mph64%30.05 "Hg10 mi
4:53 PM51 °FPassing clouds.9 mph71%30.05 "Hg10 mi
3:53 PM54 °FPassing clouds.8 mph59%30.07 "Hg10 mi
2:53 PM51 °FPassing clouds.15 mph69%30.07 "Hg10 mi
1:53 PM51 °FPassing clouds.12 mph71%30.07 "Hg10 mi
12:53 PM52 °FPassing clouds.14 mph69%30.08 "Hg10 mi
11:53 AM53 °FPassing clouds.8 mph64%30.07 "Hg10 mi
10:53 AM52 °FPassing clouds.6 mph69%30.06 "Hg10 mi
9:53 AM50 °FPassing clouds.3 mph77%30.06 "Hg10 mi
8:53 AM49 °FPassing clouds.No wind77%30.07 "Hg10 mi
7:53 AM44 °FPassing clouds.No wind85%30.10 "Hg10 mi
6:53 AM40 °FPassing clouds.3 mph89%30.09 "Hg10 mi
5:53 AM36 °FPassing clouds.No wind97%30.10 "Hg10 mi
4:53 AM37 °FPassing clouds.5 mph96%30.10 "Hg10 mi
3:53 AM38 °FPassing clouds.No wind97%30.10 "Hg10 mi
2:53 AM38 °FClear.6 mph93%30.09 "Hg10 mi
1:53 AM43 °FSunny.No wind82%30.10 "Hg10 mi
12:53 AM45 °FPassing clouds.7 mph80%30.09 "Hg10 mi
11:53 PM
Mon, May 25
48 °FSunny.5 mph71%30.09 "Hg10 mi
10:53 PM49 °FPassing clouds.3 mph69%30.09 "Hg10 mi
9:53 PM48 °FPassing clouds.8 mph71%30.09 "Hg10 mi
Weather by CustomWeather, © 2015

See weather overviewHow to use our weather pages